Flag for Switzerland Weather past 2 weeks in Sion, Valais, Switzerland

Now
52 °F

Cool.


Feels Like: 52 °F
Forecast: 51 / 76 °F
Wind: 2 mph from East

Location: Sion

Current Time: Aug 21, 2014 at 7:15:26 AM

Latest Report: Aug 21, 2014 at 6:00 AM


Visibility: N/A

Pressure: 30.06 "Hg

Humidity: 90%

Dew point: 49 °F

Location of SionLocation

Historic Weather in Sion — Graph

°F

Sion temperature yesterday

Maximum temperature yesterday: 76 °F (at 4:00 PM)
Minimum temperature yesterday: 55 °F (at 7:00 AM)
Average temperature yesterday: 64 °F

Past Weeks' High & Low Weather Summary

 TemperatureHumidityPressure
High85 °F (Aug 10, 6:00 PM)97% (Aug 11, 7:00 AM)30.22 "Hg (Aug 11, 7:00 AM)
Low47 °F (Aug 17, 7:00 AM)31% (Aug 18, 4:00 PM)29.70 "Hg (Aug 13, 4:00 PM)
Average65 °F70%29.95 "Hg
* Reported Aug 6 6:00 AM — Aug 21 6:00 AM, Sion, Weather by CustomWeather, © 2014

Note: Actual official high and low records may vary slightly from our data, if they occured in-between our weather recording intervals... More about our weather records

Advertising

Sion weather history for previous 24 hours

 ConditionsComfort  
Time TempWeatherWind HumidityBarometerVisibility
6:00 AM
Aug 21
52 °FCool.2 mph90%30.06 "HgN/A
5:00 AM54 °FPassing clouds.1 mph88%30.05 "Hg12 mi
4:00 AM55 °FCool.No wind87%30.06 "HgN/A
3:00 AM55 °FCool.3 mph83%30.05 "HgN/A
2:00 AM56 °FPassing clouds.1 mph83%30.04 "Hg12 mi
1:00 AM59 °FCool.5 mph75%30.04 "HgN/A
12:00 AM58 °FCool.6 mph81%30.03 "HgN/A
11:00 PM
Aug 20
60 °FPassing clouds.12 mph75%30.00 "Hg16 mi
10:00 PM64 °FMild.14 mph53%29.96 "HgN/A
9:00 PM64 °FMild.3 mph51%29.93 "HgN/A
8:00 PM66 °FPartly sunny.5 mph48%29.91 "Hg12 mi
7:00 PM68 °FMild.7 mph46%29.90 "HgN/A
6:00 PM66 °FMild.3 mph50%29.92 "HgN/A
5:00 PM69 °FOvercast.17 mph41%29.91 "Hg14 mi
4:00 PM76 °FMild.14 mph38%29.87 "HgN/A
3:00 PM69 °FMild.15 mph46%29.89 "HgN/A
2:00 PM72 °FPartly sunny.10 mph43%29.87 "Hg19 mi
1:00 PM71 °FMild.10 mph43%29.90 "HgN/A
12:00 PM69 °FMild.7 mph52%29.93 "HgN/A
11:00 AM65 °FMild.7 mph58%29.96 "HgN/A
10:00 AM64 °FMild.3 mph64%29.97 "HgN/A
9:00 AM60 °FCool.1 mph74%29.99 "HgN/A
8:00 AM56 °FPartly sunny.2 mph90%30.00 "Hg19 mi
7:00 AM55 °FCool.1 mph87%30.01 "HgN/A
Weather by CustomWeather, © 2014

See weather overviewHow to use our weather pages